• în România
  • Lista ţărilor
  • Pe 7 zile
  • Temperatura apei
  • Hartă satelitară
  • Meteo pe hartă
  • Widget-uri
  • user-avatar
    Intrare

    Meteo pe oră la Fier

    Astăzi, 23 Mai, Marţi

    Timp Temperatura Precipitaţii Vânt Presiune Umiditate
    00:00 +17°C° 0 mm 2 m/s 760 mmHg 88%
    01:00 +17°C° 0 mm 2 m/s 760 mmHg 85%
    02:00 +17°C° 0 mm 2 m/s 760 mmHg 85%
    03:00 +17°C° 0 mm 2 m/s 760 mmHg 84%
    04:00 +16°C° 0 mm 2 m/s 760 mmHg 83%
    05:00 +19°C° 0 mm 1 m/s 760 mmHg 77%
    06:00 +21°C° 0 mm 1 m/s 760 mmHg 71%
    07:00 +23°C° 0 mm 1 m/s 760 mmHg 65%
    08:00 +24°C° 0,1 mm 1 m/s 760 mmHg 61%
    09:00 +26°C° 0,1 mm 2 m/s 761 mmHg 56%
    10:00 +27°C° 0,1 mm 2 m/s 761 mmHg 52%
    11:00 +27°C° 0,4 mm 2 m/s 760 mmHg 54%
    12:00 +27°C° 0,4 mm 3 m/s 760 mmHg 55%
    13:00 +27°C° 0,4 mm 4 m/s 760 mmHg 57%
    14:00 +26°C° 0,4 mm 3 m/s 760 mmHg 59%
    15:00 +26°C° 0,4 mm 3 m/s 760 mmHg 60%
    16:00 +26°C° 0,4 mm 3 m/s 760 mmHg 62%
    17:00 +23°C° 0,1 mm 2 m/s 760 mmHg 70%
    18:00 +20°C° 0,1 mm 2 m/s 760 mmHg 77%
    19:00 +19°C° 0,1 mm 1 m/s 760 mmHg 85%
    20:00 +19°C° 0 mm 1 m/s 761 mmHg 86%
    21:00 +18°C° 0 mm 1 m/s 761 mmHg 87%
    22:00 +18°C° 0 mm 1 m/s 761 mmHg 89%
    23:00 +16°C° 0 mm 1 m/s 761 mmHg 89%

    Mâine, 24 Mai, Miercuri

    Timp Temperatura Precipitaţii Vânt Presiune Umiditate
    00:00 +16°C° 0 mm 1 m/s 761 mmHg 90%
    01:00 +16°C° 0 mm 1 m/s 761 mmHg 90%
    02:00 +15°C° 0 mm 1 m/s 761 mmHg 90%
    03:00 +15°C° 0 mm 1 m/s 761 mmHg 90%
    04:00 +15°C° 0 mm 1 m/s 761 mmHg 90%
    05:00 +18°C° 0 mm 1 m/s 761 mmHg 82%
    06:00 +18°C° 0 mm 0 m/s 761 mmHg 75%
    07:00 +21°C° 0 mm 0 m/s 761 mmHg 68%
    08:00 +24°C° 0 mm 1 m/s 761 mmHg 61%
    09:00 +25°C° 0 mm 2 m/s 761 mmHg 54%
    10:00 +26°C° 0 mm 2 m/s 761 mmHg 48%
    11:00 +26°C° 0 mm 3 m/s 760 mmHg 47%
    12:00 +27°C° 0 mm 3 m/s 760 mmHg 47%
    13:00 +27°C° 0 mm 4 m/s 760 mmHg 46%
    14:00 +27°C° 0 mm 4 m/s 760 mmHg 49%
    15:00 +26°C° 0 mm 3 m/s 759 mmHg 51%
    16:00 +26°C° 0 mm 3 m/s 759 mmHg 53%
    17:00 +23°C° 0 mm 2 m/s 759 mmHg 64%
    18:00 +20°C° 0 mm 2 m/s 759 mmHg 75%
    19:00 +19°C° 0 mm 1 m/s 759 mmHg 85%
    20:00 +18°C° 0 mm 1 m/s 760 mmHg 87%
    21:00 +18°C° 0 mm 1 m/s 760 mmHg 88%
    22:00 +16°C° 0 mm 1 m/s 760 mmHg 89%
    23:00 +16°C° 0 mm 1 m/s 760 mmHg 89%

    Poimâine, 25 Mai, Joi

    Timp Temperatura Precipitaţii Vânt Presiune Umiditate
    00:00 +15°C° 0 mm 1 m/s 760 mmHg 89%
    01:00 +15°C° 0 mm 1 m/s 760 mmHg 89%
    02:00 +15°C° 0,1 mm 1 m/s 759 mmHg 89%
    03:00 +15°C° 0,1 mm 1 m/s 759 mmHg 89%
    04:00 +16°C° 0,1 mm 1 m/s 759 mmHg 89%
    05:00 +18°C° 0,2 mm 1 m/s 759 mmHg 85%
    06:00 +19°C° 0,2 mm 1 m/s 759 mmHg 80%
    07:00 +21°C° 0,2 mm 1 m/s 760 mmHg 76%
    08:00 +22°C° 0 mm 1 m/s 760 mmHg 69%
    09:00 +24°C° 0 mm 1 m/s 760 mmHg 63%
    10:00 +25°C° 0 mm 1 m/s 760 mmHg 56%
    11:00 +25°C° 0,2 mm 3 m/s 759 mmHg 54%
    12:00 +26°C° 0,2 mm 4 m/s 759 mmHg 52%
    13:00 +26°C° 0,2 mm 5 m/s 759 mmHg 49%
    14:00 +25°C° 0,1 mm 5 m/s 758 mmHg 49%
    15:00 +25°C° 0,1 mm 5 m/s 758 mmHg 49%
    16:00 +23°C° 0,1 mm 6 m/s 758 mmHg 48%
    17:00 +21°C° 0 mm 5 m/s 758 mmHg 58%
    18:00 +19°C° 0 mm 4 m/s 758 mmHg 67%
    19:00 +17°C° 0 mm 3 m/s 758 mmHg 77%
    20:00 +16°C° 0,1 mm 3 m/s 758 mmHg 78%
    21:00 +16°C° 0,1 mm 2 m/s 758 mmHg 79%
    22:00 +15°C° 0,1 mm 2 m/s 759 mmHg 81%
    23:00 +15°C° 0 mm 2 m/s 759 mmHg 80%

    26 Mai, Vineri

    Timp Temperatura Precipitaţii Vânt Presiune Umiditate
    00:00 +15°C° 0 mm 2 m/s 758 mmHg 79%
    01:00 +15°C° 0 mm 2 m/s 758 mmHg 78%
    02:00 +15°C° 0 mm 2 m/s 758 mmHg 78%
    03:00 +14°C° 0 mm 2 m/s 758 mmHg 79%
    04:00 +14°C° 0 mm 2 m/s 758 mmHg 79%
    05:00 +16°C° 0 mm 2 m/s 758 mmHg 71%
    06:00 +18°C° 0 mm 2 m/s 758 mmHg 64%
    07:00 +21°C° 0 mm 1 m/s 758 mmHg 56%
    08:00 +23°C° 0 mm 2 m/s 758 mmHg 51%
    09:00 +24°C° 0 mm 3 m/s 758 mmHg 46%
    10:00 +25°C° 0 mm 3 m/s 758 mmHg 41%
    11:00 +25°C° 0 mm 4 m/s 758 mmHg 41%
    12:00 +26°C° 0 mm 4 m/s 757 mmHg 41%
    13:00 +26°C° 0 mm 5 m/s 757 mmHg 40%
    14:00 +26°C° 0 mm 5 m/s 757 mmHg 43%
    15:00 +25°C° 0 mm 5 m/s 757 mmHg 45%
    16:00 +23°C° 0 mm 6 m/s 756 mmHg 48%
    17:00 +21°C° 0 mm 5 m/s 757 mmHg 57%
    18:00 +19°C° 0 mm 4 m/s 757 mmHg 67%
    19:00 +17°C° 0 mm 3 m/s 757 mmHg 76%
    20:00 +17°C° 0 mm 2 m/s 757 mmHg 77%
    21:00 +16°C° 0 mm 2 m/s 757 mmHg 78%
    22:00 +16°C° 0 mm 2 m/s 758 mmHg 79%
    23:00 +15°C° 0,1 mm 2 m/s 757 mmHg 81%

    27 Mai, Sâmbătă

    Timp Temperatura Precipitaţii Vânt Presiune Umiditate
    00:00 +15°C° 0,1 mm 2 m/s 757 mmHg 83%
    01:00 +15°C° 0,1 mm 2 m/s 757 mmHg 85%
    02:00 +15°C° 0 mm 2 m/s 757 mmHg 86%
    03:00 +14°C° 0 mm 2 m/s 757 mmHg 87%
    04:00 +14°C° 0 mm 2 m/s 757 mmHg 88%
    05:00 +16°C° 0 mm 2 m/s 757 mmHg 79%
    06:00 +19°C° 0 mm 2 m/s 758 mmHg 71%
    07:00 +22°C° 0 mm 1 m/s 758 mmHg 62%
    08:00 +23°C° 0 mm 2 m/s 758 mmHg 54%
    09:00 +24°C° 0 mm 2 m/s 758 mmHg 46%
    10:00 +25°C° 0 mm 3 m/s 758 mmHg 38%
    11:00 +26°C° 0 mm 4 m/s 758 mmHg 37%
    12:00 +26°C° 0 mm 4 m/s 757 mmHg 36%
    13:00 +27°C° 0 mm 5 m/s 757 mmHg 34%
    14:00 +26°C° 0 mm 5 m/s 757 mmHg 36%
    15:00 +25°C° 0 mm 5 m/s 757 mmHg 38%
    16:00 +25°C° 0 mm 5 m/s 757 mmHg 39%
    17:00 +21°C° 0 mm 4 m/s 757 mmHg 49%
    18:00 +19°C° 0 mm 3 m/s 758 mmHg 59%
    19:00 +17°C° 0 mm 2 m/s 758 mmHg 68%
    20:00 +16°C° 0 mm 2 m/s 758 mmHg 70%
    21:00 +15°C° 0 mm 2 m/s 759 mmHg 72%
    22:00 +14°C° 0 mm 1 m/s 759 mmHg 73%
    23:00 +14°C° 0 mm 1 m/s 759 mmHg 71%

    28 Mai, Duminică

    Timp Temperatura Precipitaţii Vânt Presiune Umiditate
    00:00 +14°C° 0 mm 1 m/s 759 mmHg 68%
    01:00 +13°C° 0 mm 2 m/s 759 mmHg 66%
    02:00 +13°C° 0,1 mm 2 m/s 759 mmHg 66%
    03:00 +13°C° 0,1 mm 2 m/s 759 mmHg 66%
    04:00 +13°C° 0,1 mm 2 m/s 760 mmHg 66%
    05:00 +15°C° 0 mm 2 m/s 760 mmHg 62%
    06:00 +18°C° 0 mm 2 m/s 760 mmHg 57%
    07:00 +20°C° 0 mm 2 m/s 760 mmHg 53%
    08:00 +23°C° 0 mm 2 m/s 760 mmHg 48%
    09:00 +24°C° 0 mm 2 m/s 760 mmHg 43%
    10:00 +25°C° 0 mm 3 m/s 760 mmHg 39%
    11:00 +26°C° 0 mm 4 m/s 760 mmHg 38%
    12:00 +26°C° 0 mm 5 m/s 760 mmHg 37%
    13:00 +27°C° 0 mm 6 m/s 760 mmHg 36%
    14:00 +26°C° 0 mm 6 m/s 760 mmHg 39%
    15:00 +26°C° 0 mm 6 m/s 760 mmHg 41%
    16:00 +26°C° 0 mm 6 m/s 760 mmHg 43%
    17:00 +22°C° 0 mm 6 m/s 760 mmHg 55%
    18:00 +20°C° 0 mm 5 m/s 760 mmHg 67%
    19:00 +18°C° 0 mm 4 m/s 760 mmHg 79%
    20:00 +18°C° 0 mm 4 m/s 761 mmHg 78%
    21:00 +18°C° 0 mm 4 m/s 761 mmHg 77%
    22:00 +17°C° 0 mm 4 m/s 761 mmHg 76%
    23:00 +17°C° 0 mm 4 m/s 761 mmHg 75%
    Arată mai mult